FIN47U EFHK-EHAM

Flight info

Callsign FIN47U
Flight time N/A
Altitude 40000
Route VALOX Y117 ROSAX DCT KESUR DCT BLUFA
Aircraft A359/H-SDE2E3GHIJ3J4J5LM1ORWXY/LB1D1

Departure

Time 2026-05-04 08:24
Airport Helsinki Vantaa Airport (EFHK)

Arrival

Time N/A
Airport Amsterdam Airport Schiphol (EHAM)
Time Latitude Longitude Altitude Speed Heading
2026-05-04 07:54 60.31563 24.95807 173 ft 0 kts 137°
2026-05-04 08:10 60.31537 24.95858 175 ft 0 kts 137°
2026-05-04 08:11 60.31561 24.95811 173 ft 0 kts 137°
2026-05-04 08:11 60.31563 24.95807 173 ft 0 kts 137°
2026-05-04 08:14 60.31575 24.95785 173 ft 4 kts 137°
2026-05-04 08:14 60.31595 24.95749 173 ft 3 kts 137°
2026-05-04 08:14 60.31608 24.95720 173 ft 4 kts 96°
2026-05-04 08:16 60.31554 24.95580 173 ft 0 kts 47°
2026-05-04 08:19 60.31893 24.95880 176 ft 13 kts 47°
2026-05-04 08:19 60.31958 24.95937 178 ft 7 kts 349°
2026-05-04 08:20 60.31967 24.95932 178 ft 0 kts 342°
2026-05-04 08:20 60.31988 24.95910 179 ft 7 kts 329°
2026-05-04 08:21 60.32040 24.95819 180 ft 13 kts 317°
2026-05-04 08:21 60.32126 24.95661 179 ft 21 kts 318°
2026-05-04 08:21 60.32242 24.95448 181 ft 23 kts 317°
2026-05-04 08:21 60.32373 24.95255 184 ft 24 kts 339°
2026-05-04 08:22 60.32531 24.95148 203 ft 24 kts 342°
2026-05-04 08:22 60.32700 24.95039 200 ft 27 kts 342°
2026-05-04 08:24 60.32526 24.93095 184 ft 130 kts 227°
2026-05-04 08:24 60.31803 24.91506 482 ft 161 kts 228°
2026-05-04 08:24 60.31046 24.89824 1260 ft 167 kts 227°
2026-05-04 08:24 60.30313 24.87812 1746 ft 192 kts 234°
2026-05-04 08:25 60.29501 24.85403 2105 ft 223 kts 236°
2026-05-04 08:25 60.28604 24.82690 2771 ft 239 kts 236°
2026-05-04 08:25 60.27675 24.79867 3663 ft 244 kts 236°
2026-05-04 08:25 60.26793 24.76951 4655 ft 244 kts 243°
2026-05-04 08:26 60.26119 24.73804 5640 ft 246 kts 247°
2026-05-04 08:27 60.17816 24.56352 11473 ft 300 kts 208°
2026-05-04 08:28 60.15907 24.54539 12325 ft 306 kts 208°
2026-05-04 08:28 60.13972 24.52693 13268 ft 309 kts 209°
2026-05-04 08:28 60.12021 24.50825 14133 ft 312 kts 209°
2026-05-04 08:28 60.10038 24.48923 14891 ft 318 kts 209°
2026-05-04 08:29 60.08028 24.46990 15629 ft 323 kts 209°
2026-05-04 08:29 60.06016 24.45057 16388 ft 327 kts 209°
2026-05-04 08:29 60.03946 24.43072 17154 ft 332 kts 209°
2026-05-04 08:31 59.88780 24.28615 22312 ft 359 kts 209°
2026-05-04 08:33 59.75064 24.15668 26087 ft 379 kts 210°
2026-05-04 08:33 59.73184 24.13737 26563 ft 379 kts 214°
2026-05-04 08:35 59.61832 23.97907 29560 ft 393 kts 219°
2026-05-04 08:35 59.60174 23.95544 29944 ft 395 kts 219°
2026-05-04 08:35 59.58455 23.93103 30290 ft 397 kts 219°
2026-05-04 08:35 59.56766 23.90712 30632 ft 399 kts 219°
2026-05-04 08:37 59.45044 23.67553 33126 ft 406 kts 243°
2026-05-04 08:37 59.43778 23.62564 33510 ft 408 kts 245°
2026-05-04 08:37 59.42554 23.57537 33857 ft 410 kts 245°
2026-05-04 08:38 59.41333 23.52459 34102 ft 413 kts 245°
2026-05-04 08:38 59.40102 23.47350 34348 ft 415 kts 245°
2026-05-04 08:38 59.38852 23.42213 34674 ft 417 kts 245°
2026-05-04 08:40 59.30369 23.08160 36614 ft 425 kts 244°
2026-05-04 08:40 59.29305 23.03932 36828 ft 426 kts 244°
2026-05-04 08:40 59.28276 22.99853 36970 ft 427 kts 244°
2026-05-04 08:41 59.27210 22.95634 37136 ft 429 kts 244°
2026-05-04 08:41 59.26162 22.91493 37342 ft 430 kts 244°
2026-05-04 08:41 59.25134 22.87442 37556 ft 431 kts 244°
2026-05-04 08:41 59.23893 22.82558 37797 ft 432 kts 244°
2026-05-04 08:42 59.22550 22.77285 38045 ft 433 kts 244°
2026-05-04 08:42 59.21221 22.72078 38283 ft 434 kts 244°
2026-05-04 08:42 59.19871 22.66803 38494 ft 435 kts 244°
2026-05-04 08:42 59.18510 22.61495 38682 ft 436 kts 244°
2026-05-04 08:43 59.17145 22.56190 38875 ft 437 kts 244°
2026-05-04 08:43 59.15777 22.50879 39059 ft 438 kts 244°
2026-05-04 08:43 59.14407 22.45576 39238 ft 439 kts 244°
2026-05-04 08:43 59.13033 22.40271 39401 ft 440 kts 244°
2026-05-04 08:44 59.11658 22.34974 39577 ft 440 kts 244°
2026-05-04 08:44 59.10289 22.29714 39690 ft 442 kts 244°
2026-05-04 08:46 59.01906 21.97763 39722 ft 444 kts 243°
2026-05-04 08:46 58.99629 21.89159 39724 ft 444 kts 243°
2026-05-04 08:47 58.97144 21.79811 39729 ft 444 kts 243°
2026-05-04 08:47 58.94615 21.70337 39730 ft 444 kts 243°
2026-05-04 08:48 58.91989 21.60540 39710 ft 444 kts 243°
2026-05-04 08:48 58.89411 21.50964 39739 ft 445 kts 243°
2026-05-04 08:49 58.86671 21.40831 39724 ft 445 kts 243°
2026-05-04 08:50 58.76649 21.04147 39724 ft 446 kts 242°
2026-05-04 08:51 58.73741 20.93612 39713 ft 446 kts 242°
2026-05-04 08:51 58.70817 20.83068 39720 ft 446 kts 242°
2026-05-04 08:52 58.67920 20.72671 39720 ft 446 kts 242°
2026-05-04 08:52 58.65129 20.62697 39720 ft 446 kts 242°
2026-05-04 08:54 58.54636 20.25582 39710 ft 446 kts 242°
2026-05-04 08:55 58.51677 20.15226 39721 ft 447 kts 242°
2026-05-04 08:55 58.48703 20.04862 39740 ft 447 kts 242°
2026-05-04 09:01 58.16769 18.96412 39748 ft 448 kts 240°
2026-05-04 09:01 58.13682 18.86192 39746 ft 447 kts 240°
2026-05-04 09:02 58.10583 18.75980 39747 ft 447 kts 240°
2026-05-04 09:02 58.07478 18.65787 39750 ft 448 kts 240°
2026-05-04 09:03 58.04380 18.55665 39750 ft 448 kts 240°
2026-05-04 09:03 58.01248 18.45475 39753 ft 448 kts 240°
2026-05-04 09:04 57.98114 18.35323 39758 ft 448 kts 240°
2026-05-04 09:04 57.94968 18.25177 39759 ft 449 kts 240°
2026-05-04 09:05 57.91814 18.15047 39761 ft 449 kts 240°
2026-05-04 09:05 57.88648 18.04924 39765 ft 449 kts 240°
2026-05-04 09:06 57.85479 17.94832 39766 ft 449 kts 240°
2026-05-04 09:08 57.72702 17.54584 39768 ft 450 kts 239°
2026-05-04 09:08 57.69507 17.44624 39768 ft 450 kts 239°
2026-05-04 09:09 57.66277 17.34599 39767 ft 450 kts 239°
2026-05-04 09:09 57.63040 17.24598 39771 ft 450 kts 239°
2026-05-04 09:10 57.59799 17.14621 39774 ft 450 kts 239°
2026-05-04 09:10 57.56550 17.04664 39775 ft 450 kts 239°
2026-05-04 09:11 57.53289 16.94714 39770 ft 450 kts 239°
2026-05-04 09:11 57.50025 16.84791 39771 ft 450 kts 239°
2026-05-04 09:12 57.46748 16.74873 39774 ft 450 kts 239°
2026-05-04 09:14 57.33587 16.35454 39774 ft 450 kts 238°
2026-05-04 09:14 57.30276 16.25637 39784 ft 450 kts 238°
2026-05-04 09:15 57.26956 16.15836 39780 ft 450 kts 238°
2026-05-04 09:15 57.23628 16.06050 39776 ft 449 kts 238°
2026-05-04 09:17 57.08582 15.62303 39790 ft 450 kts 238°
2026-05-04 09:18 57.05213 15.52613 39793 ft 450 kts 238°
2026-05-04 09:18 57.01833 15.42934 39799 ft 451 kts 238°